Location: Bailleul
(50.3375°N, 2.8513°E)
Time: 09:50:12
(UTC+00:00)

Cosmos 2016 Rocket - Pass Details

Date: 01 November 2021
Orbit: 946 x 1001 km, 83.0° (Epoch: 29 November)

Event Time Altitude Azimuth Distance (km) Brightness Sun altitude
Rises 19:00:13 0° 191° (S) 3,638 7.0 -25.2°
Reaches altitude 10° 19:02:43 10° 192° (SSW) 2,688 6.3 -25.6°
Maximum altitude 19:08:52 81° 280° (W) 972 3.9 -26.6°
Drops below altitude 10° 19:15:01 10° 8° (N) 2,683 6.3 -27.6°
Sets 19:17:31 0° 10° (N) 3,630 7.0 -28.0°
